Charlottesville, VA

9:37 PM EDT on July 23, 2017 (GMT -0400)
Charlottesville-Albemarle

Weather History for KCHO - August, 2009

Change the Weather History Date:

Saturday, August 15, 2009

  Actual Average Record
Temperature  
Mean Temperature 77 °F 74 °F  
Max Temperature 88 °F 85 °F 101 °F (1988)
Min Temperature 65 °F 64 °F 50 °F (2013)
Degree Days  
Heating Degree Days 0 0  
Month to date heating degree days 0 0  
Since 1 June heating degree days 16 12  
Since 1 July heating degree days 0 1  
Cooling Degree Days 12 9  
Month to date cooling degree days 163 147  
Year to date cooling degree days 706 777  
Since 1 June cooling degree days 605 691  
Growing Degree Days 26 (Base 50)    
Moisture  
Dew Point 66 °F    
Average Humidity 72    
Maximum Humidity 100    
Minimum Humidity 43    
Precipitation  
Precipitation 0.00 in 0.12 in 2.15 in (1975)
Month to date precipitation 1.84 2.02  
Year to date precipitation 22.79 26.54  
Sea Level Pressure  
Sea Level Pressure 30.18 in    
Wind  
Wind Speed 2 mph (NE)    
Max Wind Speed 12 mph    
Max Gust Speed 12 mph    
Visibility 6 miles    
Events Fog    
T = Trace of Precipitation, MM = Missing Value Source: NWS Daily Summary

Daily Weather History Graph

Daily Weather History Graph

Search for Another Location

Airport or City:

Trip Planner

Search our weather history database for the weather conditions in past years. The results will help you decide how hot, cold, wet, or windy it might be!

Date:

Astronomy

Aug. 15, 2009 Rise Set
Actual Time 6:28 AM EDT 8:06 PM EDT
Civil Twilight 6:00 AM EDT 8:34 PM EDT
Nautical Twilight 5:26 AM EDT 9:08 PM EDT
Astronomical Twilight 4:50 AM EDT 9:44 PM EDT
Moon 12:43 AM EDT (8/15) 4:22 PM EDT (8/15)
Length of Visible Light 14h 34m
Length of Day
13h 38m
Waning Crescent, 30% of the Moon is Illuminated
Aug 15
Waning Crescent
Aug 20
New
Aug 27
First Quarter
Sep 4
Full
Sep 11
Last Quarter

Hourly Weather History & Observations

Time (EDT) Temp. Heat Index Dew Point Humidity Pressure Visibility Wind Dir Wind Speed Gust Speed Precip Events Conditions
12:53 AM 70.0 °F - 68.0 °F 93% 30.17 in 10.0 mi Calm Calm - N/A   Clear
1:39 AM 69.8 °F - 68.0 °F 94% 30.19 in 6.0 mi Calm Calm - N/A   Mostly Cloudy
1:53 AM 70.0 °F - 68.0 °F 93% 30.17 in 7.0 mi Calm Calm - N/A   Overcast
2:53 AM 69.1 °F - 68.0 °F 96% 30.17 in 7.0 mi Calm Calm - N/A   Overcast
3:53 AM 68.0 °F - 66.9 °F 96% 30.16 in 5.0 mi Calm Calm - N/A   Clear
4:38 AM 66.2 °F - 66.2 °F 100% 30.19 in 4.0 mi Calm Calm - N/A   Mostly Cloudy
4:53 AM 66.9 °F - 66.0 °F 97% 30.17 in 4.0 mi Calm Calm - N/A   Overcast
5:01 AM 66.2 °F - 66.2 °F 100% 30.19 in 1.8 mi Calm Calm - N/A   Mostly Cloudy
5:08 AM 66.2 °F - 66.2 °F 100% 30.19 in 1.8 mi Calm Calm - N/A   Scattered Clouds
5:22 AM 66.2 °F - 64.4 °F 94% 30.19 in 0.8 mi Calm Calm - N/A   Mist
5:25 AM 66.2 °F - 64.4 °F 94% 30.19 in 1.0 mi Calm Calm - N/A   Clear
5:29 AM 66.2 °F - 64.4 °F 94% 30.19 in 2.0 mi Calm Calm - N/A   Partly Cloudy
5:36 AM 66.2 °F - 64.4 °F 94% 30.19 in 3.0 mi Calm Calm - N/A   Partly Cloudy
5:40 AM 66.2 °F - 64.4 °F 94% 30.19 in 1.8 mi Calm Calm - N/A   Partly Cloudy
5:49 AM 66.2 °F - 66.2 °F 100% 30.19 in 4.0 mi Calm Calm - N/A   Partly Cloudy
5:53 AM 66.0 °F - 64.9 °F 96% 30.17 in 4.0 mi Calm Calm - N/A   Partly Cloudy
6:00 AM 64.4 °F - 64.4 °F 100% 30.19 in 2.5 mi Calm Calm - N/A   Clear
6:53 AM 64.9 °F - 64.0 °F 97% 30.19 in 1.5 mi Calm Calm - N/A   Clear
6:58 AM 64.4 °F - 64.4 °F 100% 30.21 in 2.5 mi Calm Calm - N/A   Partly Cloudy
7:06 AM 64.4 °F - 64.4 °F 100% 30.21 in 1.5 mi Calm Calm - N/A   Scattered Clouds
7:23 AM 66.2 °F - 64.4 °F 94% 30.21 in 0.8 mi Calm Calm - N/A   Mist
7:53 AM 66.9 °F - 66.9 °F 100% 30.19 in 0.2 mi Calm Calm - N/A Fog Fog
8:53 AM 69.1 °F - 68.0 °F 96% 30.20 in 1.5 mi Calm Calm - N/A   Overcast
9:00 AM 69.8 °F - 69.8 °F 100% 30.22 in 2.5 mi Calm Calm - N/A   Mostly Cloudy
9:12 AM 69.8 °F - 69.8 °F 100% 30.22 in 5.0 mi Calm Calm - N/A   Scattered Clouds
9:53 AM 75.9 °F - 69.1 °F 79% 30.20 in 5.0 mi WNW 3.5 mph - N/A   Haze
10:53 AM 78.1 °F - 68.0 °F 71% 30.20 in 10.0 mi Calm Calm - N/A   Clear
11:53 AM 80.1 °F 82.1 °F 66.0 °F 62% 30.20 in 10.0 mi Calm Calm - N/A   Mostly Cloudy
12:53 PM 84.0 °F 85.4 °F 64.0 °F 51% 30.17 in 10.0 mi Variable 4.6 mph - N/A   Clear
1:53 PM 84.9 °F 87.6 °F 66.9 °F 55% 30.16 in 10.0 mi East 4.6 mph - N/A   Scattered Clouds
2:53 PM 86.0 °F 87.6 °F 64.9 °F 49% 30.14 in 10.0 mi Variable 3.5 mph - N/A   Partly Cloudy
3:53 PM 87.1 °F 88.3 °F 64.0 °F 46% 30.13 in 10.0 mi Variable 4.6 mph - N/A   Partly Cloudy
4:53 PM 87.1 °F 87.8 °F 63.0 °F 44% 30.12 in 10.0 mi ENE 11.5 mph - N/A   Clear
5:53 PM 86.0 °F 86.8 °F 63.0 °F 46% 30.12 in 10.0 mi Variable 3.5 mph - N/A   Clear
6:53 PM 84.0 °F 85.8 °F 64.9 °F 53% 30.12 in 10.0 mi ENE 6.9 mph - N/A   Clear
7:53 PM 78.1 °F - 66.0 °F 66% 30.14 in 10.0 mi Calm Calm - N/A   Clear
8:53 PM 73.9 °F - 66.9 °F 79% 30.16 in 10.0 mi Calm Calm - N/A   Clear
9:53 PM 72.0 °F - 66.9 °F 84% 30.18 in 10.0 mi Calm Calm - N/A   Scattered Clouds
10:53 PM 71.1 °F - 66.9 °F 87% 30.18 in 10.0 mi Calm Calm - N/A   Clear
11:53 PM 69.1 °F - 66.9 °F 93% 30.17 in 10.0 mi Calm Calm - N/A   Clear